Regional Weather Roundup
Issued by NWS

Home | Current Version | Previous Version | Graphics & Text | Print | Product List | Glossary On
Versions: 1 2 3 4 5 6 7 8 9 10 11 12 13 14 15 16 17 18 19 20 21 22 23 24 25 26 27 28 29 30 31 32 33 34 35 36 37 38 39 40 41 42 43 44 45 46 47 48 49 50
000
ASUS44 KMEG 220510
RWRTN
TENNESSEE HOURLY STATE WEATHER ROUNDUP
NATIONAL WEATHER SERVICE MEMPHIS TN
1200 AM CDT TUE AUG 22 2017

TNZ002-004-019-021-049-052-054-088>092-220600-
WEST TENNESSEE

CITY           SKY/WX    TMP DP  RH WIND       PRES   REMARKS
MEMPHIS INTL   PTCLDY    82  75  79 S10       30.08F
NWS MEMPHIS      N/A     80 N/A N/A MISG        N/A
JACKSON        CLEAR     78  75  90 S3        30.08F
DYERSBURG      CLEAR     80  76  87 CALM      30.07F
SOMERVILLE     CLEAR     79  75  89 S5        30.08F
COVINGTON      CLEAR     79  75  89 SW7       30.06F
UNION CITY     CLEAR     77  73  88 S3        30.05F
BOLIVAR        CLEAR     79  77  94 CALM      30.08F
PARIS          CLEAR     75  73  94 CALM      30.06F
HUNTINGDON     CLEAR     75  73  94 CALM      30.07F
LEXINGTON      CLEAR     77  73  88 CALM      30.08F
SELMER         CLEAR     77  75  94 S3        30.09F
SAVANNAH       MOCLDY    75  73  94 SE3       30.09F
$$

TNZ008-025-027-028-033-062-065-066-220600-
NORTH MIDDLE TENNESSEE

CITY           SKY/WX    TMP DP  RH WIND       PRES   REMARKS
NASHVILLE      CLEAR     76  70  82 S3        30.11F
PORTLAND       CLEAR     75  70  83 S6        30.10F
CLARKSVILLE    CLEAR     75  72  90 S3        30.08F
SMYRNA         CLEAR     72  70  93 CALM      30.12F
COOKEVILLE       N/A     70  70 100 CALM      30.14F
GALLATIN       CLEAR     73  72  94 CALM      30.12F
CROSSVILLE     CLEAR     68  66  93 CALM      30.21F
$$

TNZ061-075-076-078-094-096-097-220600-
SOUTH MIDDLE TENNESSEE

CITY           SKY/WX    TMP DP  RH WIND       PRES   REMARKS
FAYETTEVILLE   CLEAR     73  70  88 CALM      30.14F
TULLAHOMA      CLEAR     72  68  88 CALM      30.17S
WINCHESTER     CLEAR     73  70  88 CALM      30.16F
MCMINNVILLE    CLEAR     72  72 100 CALM      30.15F
COLUMBIA       CLEAR     73  73 100 CALM      30.09F
SHELBYVILLE    CLEAR     72  72 100 SE3       30.13F
$$

TNZ017-018-042-046-047-220600-
NORTHEAST TENNESSEE

CITY           SKY/WX    TMP DP  RH WIND       PRES   REMARKS
TRI CITIES     PTCLDY    70  69  97 CALM      30.20F
ELIZABETHTON   CLEAR     72  68  88 CALM      30.22S
$$

TNZ012-013-036-069-073-074-220600-
CENTRAL EAST TENNESSEE

CITY           SKY/WX    TMP DP  RH WIND       PRES   REMARKS
KNOXVILLE      CLEAR     76  68  76 S3        30.16F
OAK RIDGE      CLEAR     74  70  87 CALM      30.17F
DOWNTOWN KNOXV   N/A     73  72  94 CALM      30.15F
GATLINBURG     PTCLDY    73  66  78 CALM      30.17S
MORRISTOWN     PTCLDY    73  68  83 CALM      30.17F
JACKSBORO      CLEAR     70  68  94 CALM      30.20F
$$

TNZ083-085-099-220600-
SOUTHEAST TENNESSEE

CITY           SKY/WX    TMP DP  RH WIND       PRES   REMARKS
CHATTANOOGA    PTCLDY    76  71  85 CALM      30.16R
DAYTON         MOCLDY    73  73 100 CALM      30.15S
$$

SKY/WX REPORTED AS FAIR MEANS FEW OR NO CLOUDS BELOW
12 THOUSAND FEET.




USA.gov is the U.S. government's official web portal to all federal, state and local government web resources and services.